GFSFLT2_850_spd_000.txt.gz
Wind_Speed
5 11 14 11 10 10 8 7 7 7 6 4 3 3 5 7 9 9 12 14 11 5 9 10 11 10 13 12 15 17 17 15
3 3 6 10 11 12 10 9 7 7 6 3 2 2 1 2 7 10 10 12 12 12 12 12 10 9 11 12 13 11 15 15
3 5 6 8 2 9 8 7 8 9 6 5 4 5 4 4 6 6 8 10 14 15 15 14 11 10 7 11 13 15 14 17
4 8 8 11 1 6 3 4 2 2 4 4 3 7 6 4 6 6 5 10 14 15 12 14 17 13 10 9 10 10 11 16
9 10 9 2 3 4 7 9 2 7 3 3 5 3 1 2 3 3 7 7 8 9 18 20 23 16 10 15 12 11 15 18
13 9 5 3 5 6 5 6 4 6 6 4 6 6 4 3 4 5 7 7 7 8 10 12 14 23 34 26 27 18 16 21
12 9 6 4 6 10 11 10 10 8 8 7 7 6 5 4 5 5 5 8 9 11 11 11 10 13 14 24 33 31 34 25
12 9 8 6 5 10 10 11 9 9 9 9 7 8 6 7 4 7 9 9 11 13 14 14 14 14 16 17 21 22 23 28
13 8 11 9 11 12 6 11 9 9 10 8 8 8 6 6 6 5 10 9 8 11 14 17 19 21 21 23 23 24 24 25
12 9 13 13 10 13 10 13 9 10 11 12 9 8 7 5 4 7 6 3 9 12 11 12 16 17 21 25 30 28 28 27
12 15 14 14 14 15 13 14 12 9 12 12 11 8 6 4 6 9 7 6 8 11 10 12 14 16 19 22 26 30 31 31
14 16 15 16 14 14 16 16 10 17 15 13 13 9 8 5 5 10 10 5 9 13 14 12 12 14 19 24 24 23 25 28
17 16 17 19 16 17 15 15 14 15 12 16 12 11 11 7 5 6 5 6 9 12 13 15 15 13 18 23 23 20 17 19
18 16 17 19 17 16 15 16 16 20 17 21 22 15 16 11 8 8 7 10 11 10 12 15 16 16 19 21 24 28 15 9
17 19 19 21 23 19 20 21 24 19 20 19 18 21 19 15 14 13 12 10 10 12 15 18 19 17 18 20 26 21 27 30
19 18 21 22 24 26 24 24 23 22 19 23 26 24 19 15 15 15 15 13 13 14 15 16 20 24 22 22 25 28 30 32
19 20 19 23 26 27 29 30 29 27 24 21 19 17 18 14 15 16 21 17 18 20 21 25 25 25 25 25 26 28 28 30
18 23 25 25 26 29 32 33 32 25 25 25 22 20 18 16 16 19 20 20 21 21 23 23 27 31 33 34 30 29 28 28
21 23 26 27 28 31 34 36 33 32 30 27 23 22 20 21 18 18 25 25 25 26 27 29 30 33 34 35 34 35 33 34
21 26 31 31 31 33 33 35 36 28 29 25 23 23 22 25 21 21 22 26 28 27 29 28 28 29 30 30 31 31 31 31

GFSFLT2_850_spd_003.txt.gz
Wind_Speed
10 12 13 12 11 10 8 6 5 5 3 2 1 2 3 3 2 3 7 7 9 11 12 9 10 9 9 12 16 17 20 19
4 4 7 14 13 11 10 7 7 7 5 1 1 1 0 3 4 4 4 7 8 10 11 12 11 13 15 14 12 14 15 19
8 3 8 14 6 6 8 3 4 4 4 4 2 3 1 1 2 4 6 7 8 9 12 12 12 15 15 16 15 15 14 14
8 5 8 9 2 4 7 3 5 6 3 2 2 3 3 3 3 2 2 6 9 12 12 10 13 15 16 18 19 17 18 16
10 11 11 2 3 7 4 5 4 4 4 4 2 5 6 6 5 3 4 5 6 7 8 15 20 21 18 15 15 15 15 18
13 13 7 2 5 5 8 8 8 9 7 7 7 7 8 9 7 7 7 7 8 9 9 8 10 11 18 28 28 21 18 22
12 15 9 4 6 8 9 11 10 12 12 11 11 11 9 9 9 8 7 8 9 10 11 12 14 16 15 14 16 23 29 23
15 16 13 9 11 11 11 13 14 15 15 13 12 12 11 10 11 10 10 7 10 11 11 12 14 15 16 18 18 18 22 25
16 17 15 12 13 14 14 16 16 16 16 15 14 13 11 12 11 12 12 11 10 9 10 13 14 16 18 19 21 23 24 24
15 17 16 14 14 16 15 16 16 16 17 17 14 15 13 11 12 12 11 11 9 10 11 12 14 15 16 18 20 23 25 29
18 18 16 17 17 16 15 16 18 15 15 19 18 15 15 12 12 10 8 7 8 11 13 16 16 17 17 18 20 23 25 27
17 18 18 19 19 18 17 18 20 17 18 19 22 18 15 12 11 10 10 6 6 10 16 17 17 19 19 20 21 24 23 21
16 17 19 21 20 21 22 23 24 20 22 24 20 19 17 15 13 8 7 7 10 12 14 14 16 20 21 21 26 26 17 21
14 15 18 19 20 22 22 22 21 21 19 24 23 24 23 19 19 15 15 13 13 13 9 10 14 15 17 21 23 34 31 15
14 13 16 19 22 23 25 21 22 24 22 24 27 29 27 25 21 17 15 16 15 10 11 13 15 13 14 21 24 23 33 33
11 13 17 18 22 26 28 30 30 29 28 27 28 29 28 25 21 20 16 14 9 10 13 15 17 22 25 25 27 29 29 34
11 14 21 25 25 25 29 31 32 33 27 23 24 23 20 29 23 24 20 17 16 22 21 21 23 26 27 26 27 28 31 33
14 17 21 24 27 29 30 33 35 34 35 31 31 22 20 24 26 25 23 20 19 16 16 23 24 28 32 33 34 34 34 32
11 20 25 28 33 33 35 37 37 39 38 38 36 30 25 23 19 14 13 18 20 27 23 30 35 32 30 29 30 31 30 31
19 21 26 30 32 38 33 30 35 41 40 39 37 33 26 22 22 23 23 22 28 31 30 29 30 31 31 30 29 30 31 31

GFSFLT2_850_spd_006.txt.gz
Wind_Speed
3 3 6 8 10 7 4 2 1 2 3 3 2 3 1 2 3 4 6 7 6 6 7 9 9 9 13 14 15 22 21 19
2 3 6 9 11 10 8 3 1 1 2 3 3 3 2 1 2 4 5 7 6 7 7 8 10 12 12 14 17 18 17 17
6 6 8 9 9 8 8 5 0 2 0 2 3 4 2 3 3 2 3 4 7 9 9 10 12 14 11 13 16 18 19 19
4 3 8 8 8 6 6 6 8 6 4 4 4 4 4 4 4 4 5 6 7 7 9 9 10 15 15 16 15 17 18 20
6 5 10 7 7 6 7 8 8 8 5 7 6 7 7 9 8 7 8 8 8 8 8 10 14 16 19 20 21 20 18 17
6 11 12 6 5 6 8 10 9 9 8 7 8 6 8 10 11 11 11 11 11 12 12 10 10 12 13 13 18 26 19 18
8 13 12 10 7 7 9 11 12 14 13 13 14 13 13 12 13 13 13 13 12 13 15 15 15 15 16 16 15 15 19 28
15 14 13 13 9 9 10 12 16 17 17 17 18 17 16 15 15 16 16 15 14 13 12 13 13 14 16 17 19 19 19 19
13 12 13 16 15 12 12 15 17 18 18 18 17 16 17 18 18 18 17 16 14 14 13 12 13 14 15 15 17 19 20 23
12 13 15 20 18 16 17 18 17 19 19 19 19 18 17 19 19 17 16 16 15 14 11 11 12 15 16 18 20 19 20 21
12 11 15 18 18 20 21 20 20 21 23 23 22 20 17 19 19 16 13 13 13 13 12 12 14 14 16 17 19 22 24 23
10 13 15 15 18 20 21 22 23 23 22 25 26 25 21 19 19 18 14 14 15 13 12 13 14 16 18 20 20 20 21 20
10 11 12 15 15 17 19 22 23 25 26 27 24 24 27 24 20 19 19 17 14 14 14 15 13 15 20 22 23 22 25 27
8 8 10 12 14 16 19 22 25 27 25 23 26 29 29 27 26 26 23 19 18 18 18 15 12 13 17 20 20 33 27 29
5 5 10 13 15 16 20 24 28 31 33 32 30 29 34 32 32 30 28 24 23 21 21 16 16 13 13 13 17 18 39 33
7 8 11 14 19 22 25 28 30 31 33 33 31 34 30 32 31 30 26 24 24 21 20 17 16 15 16 16 20 25 32 36
6 9 13 15 20 24 29 33 39 38 37 36 36 35 36 30 31 34 33 30 24 19 16 18 19 15 15 20 25 30 35 36
3 5 8 13 20 26 29 33 36 38 39 41 43 40 39 33 31 36 32 30 31 28 27 23 23 23 24 29 33 34 32 34
8 15 22 28 33 32 37 42 36 33 33 31 39 41 32 32 31 30 27 24 21 19 24 24 24 30 34 27 30 32 31 32
16 19 25 29 32 37 39 32 34 35 33 32 34 36 27 26 23 20 15 16 22 23 28 33 35 21 25 29 32 33 34 34

GFSFLT2_850_spd_009.txt.gz
Wind_Speed
1 2 6 9 11 9 7 6 5 5 4 4 4 5 4 4 4 4 5 4 6 7 9 10 9 10 11 13 13 14 13 15
2 4 5 8 9 9 8 7 5 4 3 5 5 6 5 4 4 5 6 6 5 7 9 11 11 11 11 13 13 12 13 13
3 4 6 9 11 9 7 6 3 6 5 6 6 6 5 5 5 6 7 8 7 8 9 10 11 12 11 12 15 16 16 16
4 4 6 7 8 7 5 5 6 7 7 7 7 7 8 7 7 8 9 10 11 10 10 9 10 12 14 15 16 18 18 17
7 3 7 8 8 7 7 8 8 8 7 9 9 10 10 10 11 12 12 12 12 13 13 14 12 13 15 16 19 22 21 23
8 6 8 11 11 9 9 10 10 10 10 10 11 12 11 12 13 14 15 15 16 15 15 16 18 16 14 15 18 16 17 24
11 7 10 12 13 11 10 11 12 15 15 14 14 15 16 17 16 15 16 17 17 17 17 17 18 20 19 17 16 17 17 16
9 8 10 11 12 12 11 12 13 16 17 16 17 19 19 19 19 19 19 18 18 16 15 15 15 15 15 16 16 16 16 17
9 9 10 9 11 11 11 12 14 16 17 18 18 19 19 19 20 21 21 21 19 17 16 14 13 12 12 14 15 16 17 18
10 9 8 11 13 13 14 16 18 18 18 20 20 19 19 20 20 21 21 21 20 19 17 15 13 13 13 14 16 18 18 19
10 8 7 9 12 14 15 16 17 18 20 22 22 22 23 22 20 21 20 20 21 19 18 18 16 15 15 15 16 17 17 17
8 6 6 7 7 10 12 16 18 19 19 20 22 25 27 26 23 22 21 22 22 21 21 21 20 18 17 18 17 17 18 17
5 5 6 4 6 9 12 15 18 22 23 23 23 24 26 28 28 27 25 24 25 24 23 23 23 20 19 19 21 22 21 23
5 6 6 7 10 13 16 19 21 24 27 29 30 31 29 29 31 33 32 31 29 29 29 28 26 23 20 19 18 24 27 26
8 10 11 11 12 15 19 23 26 28 30 34 36 38 38 36 36 38 38 38 37 36 33 31 30 26 23 18 7 9 24 28
11 12 14 13 16 18 20 24 29 29 31 35 35 36 39 42 41 40 41 41 37 34 33 32 30 28 24 19 15 14 10 21
12 13 13 13 14 18 26 33 35 38 40 37 34 34 36 41 43 43 42 39 34 33 32 26 24 24 19 16 16 18 23 26
10 6 6 12 20 27 32 35 39 41 38 33 32 32 32 32 38 43 42 38 29 26 24 26 21 15 16 18 19 19 21 27
7 13 18 23 28 35 36 39 37 33 34 36 35 32 33 34 30 35 34 27 32 32 20 17 20 17 20 23 28 30 25 26
17 24 30 35 39 38 33 29 30 32 34 34 34 31 28 23 19 24 23 27 18 15 18 23 26 27 24 15 20 24 25 25

GFSFLT2_850_spd_012.txt.gz
Wind_Speed
4 4 4 7 10 9 9 7 5 5 6 5 5 5 5 6 6 5 6 6 8 9 9 9 9 10 11 11 11 10 8 9
4 4 5 9 12 12 10 8 5 4 5 6 6 7 7 7 8 8 7 7 8 9 11 10 10 11 12 12 11 9 8 8
2 2 5 9 11 11 8 7 4 5 6 7 8 8 7 8 8 8 9 11 11 10 10 12 12 10 11 12 13 13 12 12
1 2 2 7 8 8 7 7 6 5 7 7 9 10 9 10 10 10 12 13 14 14 14 12 13 13 12 11 14 15 16 15
6 4 5 8 9 8 6 6 6 6 7 8 10 12 12 12 13 13 15 15 15 16 18 17 15 13 13 13 13 16 18 19
10 7 5 10 11 12 10 9 8 8 9 11 11 11 13 15 15 16 17 17 17 18 18 19 19 17 17 16 17 15 14 14
12 7 5 7 8 11 11 10 11 12 13 13 14 15 16 18 19 20 20 20 19 19 19 18 19 19 18 16 15 14 13 13
14 9 5 6 8 11 10 11 12 14 16 16 16 17 18 19 20 20 20 21 22 22 20 19 17 18 18 18 15 14 13 13
15 9 6 5 10 10 10 11 13 15 15 15 16 18 19 19 20 21 21 22 23 22 21 20 19 17 16 15 15 15 14 14
15 10 6 7 8 9 10 11 13 15 16 17 17 18 18 19 21 21 19 20 21 22 22 21 19 18 17 16 15 14 14 15
14 9 4 7 8 7 9 11 12 13 17 19 21 22 21 22 22 21 20 20 20 21 22 22 21 20 20 19 17 16 14 15
12 6 6 6 3 5 6 9 10 12 15 18 21 24 26 27 27 26 25 24 23 24 24 23 23 23 23 23 22 20 17 15
7 5 5 5 6 9 11 14 15 17 20 22 24 27 31 33 34 33 31 31 28 26 25 27 28 27 26 29 29 26 23 17
6 7 8 8 10 13 16 19 21 22 24 26 29 31 32 34 38 39 39 37 36 33 33 33 32 32 31 31 29 25 28 25
7 9 12 13 15 18 20 21 22 27 28 26 27 32 33 35 34 39 43 44 43 41 40 39 38 37 35 29 14 18 24 23
11 13 15 16 16 15 17 23 30 33 34 36 36 31 29 30 31 31 36 44 49 48 45 42 39 37 35 32 32 30 19 20
11 9 8 8 11 17 24 28 33 35 34 33 31 32 33 33 33 33 32 34 44 49 44 40 37 34 28 21 21 20 14 11
3 5 9 14 20 26 31 32 32 33 34 35 37 37 36 36 34 34 35 33 33 28 36 31 25 26 25 20 14 11 13 14
11 17 23 27 29 29 29 28 30 32 35 37 37 36 36 35 32 27 26 24 22 23 23 23 19 19 15 15 18 20 19 16
22 26 29 30 28 27 26 27 31 35 37 37 33 31 32 31 26 19 16 18 18 12 10 11 16 17 16 18 18 17 14 14